Time,TemperatureF,DewpointF,PressureIn,WindDirection,WindDirectionDegrees,WindSpeedMPH,WindSpeedGustMPH,Humidity,HourlyPrecipIn,Conditions,Clouds,dailyrainin,SoftwareType,DateUTC
2013-02-08 00:01:00,38.0,36.0,30.00,SSE,161,0.0,-999.0,93,-99.99,,,-99.99,,2013-02-08 08:01:00,
2013-02-08 00:11:00,38.0,36.0,30.00,SSE,161,0.0,-999.0,93,-99.99,,,-99.99,,2013-02-08 08:11:00,
2013-02-08 00:21:00,37.0,35.0,30.00,SSE,161,0.0,-999.0,93,-99.99,,,-99.99,,2013-02-08 08:21:00,
2013-02-08 00:32:00,37.0,35.0,30.00,SSE,161,0.0,-999.0,93,-99.99,,,-99.99,,2013-02-08 08:32:00,
2013-02-08 00:41:00,37.0,35.0,30.00,SSE,161,0.0,-999.0,93,-99.99,,,-99.99,,2013-02-08 08:41:00,
2013-02-08 00:52:00,36.0,34.0,29.99,SSE,161,0.0,-999.0,93,-99.99,,,-99.99,,2013-02-08 08:52:00,
2013-02-08 01:02:00,36.0,34.0,29.99,SSE,161,0.0,-999.0,93,-99.99,,,-99.99,,2013-02-08 09:02:00,
2013-02-08 01:11:00,36.0,34.0,29.99,SSE,161,0.0,-999.0,93,-99.99,,,-99.99,,2013-02-08 09:11:00,
2013-02-08 01:21:00,36.0,34.0,29.99,SSE,161,0.0,-999.0,94,-99.99,,,-99.99,,2013-02-08 09:21:00,
2013-02-08 01:31:00,36.0,34.0,29.99,SSE,161,0.0,-999.0,94,-99.99,,,-99.99,,2013-02-08 09:31:00,
2013-02-08 01:42:00,36.0,34.0,29.99,SSE,161,0.0,-999.0,94,-99.99,,,-99.99,,2013-02-08 09:42:00,
2013-02-08 01:52:00,36.0,34.0,29.98,SSE,161,0.0,-999.0,94,-99.99,,,-99.99,,2013-02-08 09:52:00,
2013-02-08 02:01:00,36.0,34.0,29.98,SSE,161,0.0,-999.0,94,-99.99,,,-99.99,,2013-02-08 10:01:00,
2013-02-08 02:11:00,36.0,34.0,29.98,SSE,161,0.0,-999.0,94,-99.99,,,-99.99,,2013-02-08 10:11:00,
2013-02-08 02:22:00,36.0,34.0,29.98,SSE,161,0.0,-999.0,94,-99.99,,,-99.99,,2013-02-08 10:22:00,
2013-02-08 02:31:00,36.0,34.0,29.97,SSE,161,0.0,-999.0,94,-99.99,,,-99.99,,2013-02-08 10:31:00,
2013-02-08 02:41:00,36.0,34.0,29.97,SSE,161,0.0,-999.0,94,-99.99,,,-99.99,,2013-02-08 10:41:00,
2013-02-08 02:52:00,36.0,34.0,29.97,SSE,161,0.0,-999.0,94,-99.99,,,-99.99,,2013-02-08 10:52:00,
2013-02-08 03:01:00,36.0,34.0,29.97,SSE,161,0.0,-999.0,94,-99.99,,,-99.99,,2013-02-08 11:01:00,
2013-02-08 03:11:00,36.0,34.0,29.97,SSE,161,0.0,-999.0,94,-99.99,,,-99.99,,2013-02-08 11:11:00,
2013-02-08 03:21:00,35.0,33.0,29.96,SSE,161,0.0,-999.0,94,-99.99,,,-99.99,,2013-02-08 11:21:00,
2013-02-08 03:32:00,35.0,33.0,29.96,SSE,161,0.0,-999.0,94,-99.99,,,-99.99,,2013-02-08 11:32:00,
2013-02-08 03:41:00,35.0,33.0,29.96,SSE,161,0.0,-999.0,94,-99.99,,,-99.99,,2013-02-08 11:41:00,
2013-02-08 03:52:00,35.0,33.0,29.96,SSE,161,0.0,-999.0,94,-99.99,,,-99.99,,2013-02-08 11:52:00,
2013-02-08 04:01:00,35.0,33.0,29.96,SSE,161,0.0,-999.0,94,-99.99,,,-99.99,,2013-02-08 12:01:00,
2013-02-08 04:11:00,35.0,33.0,29.96,SSE,161,0.0,-999.0,94,-99.99,,,-99.99,,2013-02-08 12:11:00,
2013-02-08 04:21:00,35.0,33.0,29.96,SSE,161,0.0,-999.0,94,-99.99,,,-99.99,,2013-02-08 12:21:00,
2013-02-08 04:32:00,34.0,32.0,29.97,SSE,161,0.0,-999.0,94,-99.99,,,-99.99,,2013-02-08 12:32:00,
2013-02-08 04:42:00,34.0,32.0,29.97,SSE,161,0.0,-999.0,94,-99.99,,,-99.99,,2013-02-08 12:42:00,
2013-02-08 04:52:00,34.0,32.0,29.97,SSE,161,0.0,-999.0,94,-99.99,,,-99.99,,2013-02-08 12:52:00,
2013-02-08 05:01:00,34.0,32.0,29.97,SSE,161,0.0,-999.0,94,-99.99,,,-99.99,,2013-02-08 13:01:00,
2013-02-08 05:11:00,34.0,32.0,29.97,SSE,161,0.0,-999.0,94,-99.99,,,-99.99,,2013-02-08 13:11:00,
2013-02-08 05:21:00,34.0,32.0,29.97,SSE,161,0.0,-999.0,94,-99.99,,,-99.99,,2013-02-08 13:21:00,
2013-02-08 05:32:00,34.0,32.0,29.98,SSE,161,0.0,-999.0,94,-99.99,,,-99.99,,2013-02-08 13:32:00,
2013-02-08 05:42:00,34.0,32.0,29.98,SSE,161,0.0,-999.0,94,-99.99,,,-99.99,,2013-02-08 13:42:00,
2013-02-08 05:52:00,34.0,32.0,29.98,SSE,161,0.0,-999.0,94,-99.99,,,-99.99,,2013-02-08 13:52:00,
2013-02-08 06:01:00,33.0,31.0,29.98,SSE,161,0.0,-999.0,94,-99.99,,,-99.99,,2013-02-08 14:01:00,
2013-02-08 06:11:00,33.0,31.0,29.98,SSE,161,0.0,-999.0,94,-99.99,,,-99.99,,2013-02-08 14:11:00,
2013-02-08 06:21:00,33.0,31.0,29.98,SSE,161,0.0,-999.0,94,-99.99,,,-99.99,,2013-02-08 14:21:00,
2013-02-08 06:32:00,33.0,31.0,29.99,SSE,161,0.0,-999.0,94,-99.99,,,-99.99,,2013-02-08 14:32:00,
2013-02-08 06:41:00,33.0,31.0,29.99,SSE,161,0.0,-999.0,94,-99.99,,,-99.99,,2013-02-08 14:41:00,
2013-02-08 06:52:00,33.0,31.0,30.00,SSE,161,0.0,-999.0,94,-99.99,,,-99.99,,2013-02-08 14:52:00,
2013-02-08 07:01:00,33.0,31.0,30.00,SSE,161,0.0,-999.0,94,-99.99,,,-99.99,,2013-02-08 15:01:00,
2013-02-08 07:11:00,33.0,31.0,30.00,SSE,161,0.0,-999.0,94,-99.99,,,-99.99,,2013-02-08 15:11:00,
2013-02-08 07:21:00,32.0,30.0,30.00,SSE,161,0.0,-999.0,94,-99.99,,,-99.99,,2013-02-08 15:21:00,
2013-02-08 07:31:00,32.0,30.0,30.00,SSE,161,0.0,-999.0,94,-99.99,,,-99.99,,2013-02-08 15:31:00,
2013-02-08 07:41:00,32.0,30.0,30.00,SSE,161,0.0,-999.0,94,-99.99,,,-99.99,,2013-02-08 15:41:00,
2013-02-08 07:52:00,32.0,30.0,30.00,SSE,161,0.0,-999.0,94,-99.99,,,-99.99,,2013-02-08 15:52:00,
2013-02-08 08:01:00,32.0,30.0,30.01,SSE,161,0.0,-999.0,94,-99.99,,,-99.99,,2013-02-08 16:01:00,
2013-02-08 08:11:00,32.0,30.0,30.01,SSE,161,0.0,-999.0,94,-99.99,,,-99.99,,2013-02-08 16:11:00,
2013-02-08 08:21:00,33.0,32.0,30.01,SSE,161,0.0,-999.0,95,-99.99,,,-99.99,,2013-02-08 16:21:00,
2013-02-08 08:32:00,34.0,33.0,30.02,SSE,161,0.0,-999.0,95,-99.99,,,-99.99,,2013-02-08 16:32:00,
2013-02-08 08:41:00,34.0,33.0,30.02,SSE,161,0.0,-999.0,95,-99.99,,,-99.99,,2013-02-08 16:41:00,
2013-02-08 08:52:00,36.0,35.0,30.02,SSE,161,0.0,-999.0,95,-99.99,,,-99.99,,2013-02-08 16:52:00,
2013-02-08 09:02:00,38.0,37.0,30.02,SSE,161,0.0,-999.0,95,-99.99,,,-99.99,,2013-02-08 17:02:00,
2013-02-08 09:11:00,38.0,37.0,30.02,SSE,161,0.0,-999.0,95,-99.99,,,-99.99,,2013-02-08 17:11:00,
2013-02-08 09:22:00,39.0,38.0,30.02,SSE,167,0.0,-999.0,95,-99.99,,,-99.99,,2013-02-08 17:22:00,
2013-02-08 09:32:00,41.0,39.0,30.02,NNW,330,1.0,-999.0,91,-99.99,,,-99.99,,2013-02-08 17:32:00,
2013-02-08 09:42:00,41.0,39.0,30.02,NNW,330,1.0,-999.0,91,-99.99,,,-99.99,,2013-02-08 17:42:00,
2013-02-08 09:52:00,42.0,37.0,30.03,WNW,298,2.0,-999.0,83,-99.99,,,-99.99,,2013-02-08 17:52:00,
2013-02-08 10:01:00,42.0,37.0,30.03,WNW,298,2.0,-999.0,83,-99.99,,,-99.99,,2013-02-08 18:01:00,
2013-02-08 10:11:00,42.0,37.0,30.03,WNW,298,2.0,-999.0,83,-99.99,,,-99.99,,2013-02-08 18:11:00,
2013-02-08 10:23:00,45.0,38.0,30.03,NNW,327,1.0,-999.0,77,-99.99,,,-99.99,,2013-02-08 18:23:00,
2013-02-08 10:32:00,46.0,39.0,30.03,North,355,1.0,-999.0,75,-99.99,,,-99.99,,2013-02-08 18:32:00,
2013-02-08 10:44:00,46.0,39.0,30.03,North,355,1.0,-999.0,75,-99.99,,,-99.99,,2013-02-08 18:44:00,
2013-02-08 10:52:00,46.0,39.0,30.03,NNW,329,1.0,-999.0,75,-99.99,,,-99.99,,2013-02-08 18:52:00,
2013-02-08 11:01:00,46.0,39.0,30.03,NNW,329,1.0,-999.0,75,-99.99,,,-99.99,,2013-02-08 19:01:00,
2013-02-08 11:11:00,46.0,39.0,30.03,NNW,329,1.0,-999.0,75,-99.99,,,-99.99,,2013-02-08 19:11:00,
2013-02-08 11:21:00,47.0,39.0,30.02,NNW,332,1.0,-999.0,73,-99.99,,,-99.99,,2013-02-08 19:21:00,
2013-02-08 11:32:00,48.0,39.0,30.02,North,360,1.0,-999.0,72,-99.99,,,-99.99,,2013-02-08 19:32:00,
2013-02-08 11:41:00,48.0,39.0,30.02,North,360,1.0,-999.0,72,-99.99,,,-99.99,,2013-02-08 19:41:00,
2013-02-08 11:52:00,49.0,39.0,30.01,NNE,27,1.0,-999.0,68,-99.99,,,-99.99,,2013-02-08 19:52:00,
2013-02-08 12:01:00,50.0,39.0,30.01,NNW,332,2.0,-999.0,65,-99.99,,,-99.99,,2013-02-08 20:01:00,
2013-02-08 12:11:00,50.0,39.0,30.01,NNW,332,2.0,-999.0,65,-99.99,,,-99.99,,2013-02-08 20:11:00,
2013-02-08 12:21:00,51.0,40.0,30.01,North,355,1.0,-999.0,66,-99.99,,,-99.99,,2013-02-08 20:21:00,
2013-02-08 12:31:00,51.0,40.0,30.00,North,360,1.0,-999.0,65,-99.99,,,-99.99,,2013-02-08 20:31:00,
2013-02-08 12:41:00,51.0,40.0,30.00,North,360,1.0,-999.0,65,-99.99,,,-99.99,,2013-02-08 20:41:00,
2013-02-08 12:52:00,52.0,40.0,29.99,NNW,336,1.0,-999.0,64,-99.99,,,-99.99,,2013-02-08 20:52:00,
2013-02-08 13:01:00,53.0,40.0,29.98,NNW,340,1.0,-999.0,62,-99.99,,,-99.99,,2013-02-08 21:01:00,
2013-02-08 13:11:00,53.0,40.0,29.98,NNW,340,1.0,-999.0,62,-99.99,,,-99.99,,2013-02-08 21:11:00,
2013-02-08 13:21:00,54.0,38.0,29.98,NNW,346,1.0,-999.0,55,-99.99,,,-99.99,,2013-02-08 21:21:00,
2013-02-08 13:32:00,56.0,39.0,29.98,NNW,348,1.0,-999.0,53,-99.99,,,-99.99,,2013-02-08 21:32:00,
2013-02-08 13:41:00,56.0,39.0,29.98,NNW,348,1.0,-999.0,53,-99.99,,,-99.99,,2013-02-08 21:41:00,
2013-02-08 13:52:00,57.0,38.0,29.97,NNW,328,1.0,-999.0,49,-99.99,,,-99.99,,2013-02-08 21:52:00,
2013-02-08 14:01:00,57.0,38.0,29.97,NNW,328,1.0,-999.0,49,-99.99,,,-99.99,,2013-02-08 22:01:00,
2013-02-08 14:11:00,57.0,38.0,29.97,NNW,328,1.0,-999.0,49,-99.99,,,-99.99,,2013-02-08 22:11:00,
2013-02-08 14:21:00,59.0,37.0,29.96,NNW,333,0.0,-999.0,43,-99.99,,,-99.99,,2013-02-08 22:21:00,
2013-02-08 14:31:00,59.0,37.0,29.95,NNW,343,1.0,-999.0,43,-99.99,,,-99.99,,2013-02-08 22:31:00,
2013-02-08 14:42:00,59.0,37.0,29.95,NNW,343,1.0,-999.0,43,-99.99,,,-99.99,,2013-02-08 22:42:00,
2013-02-08 14:52:00,60.0,36.0,29.95,NNE,20,1.0,-999.0,40,-99.99,,,-99.99,,2013-02-08 22:52:00,
2013-02-08 15:01:00,60.0,34.0,29.94,NW,315,1.0,-999.0,38,-99.99,,,-99.99,,2013-02-08 23:01:00,
2013-02-08 15:11:00,60.0,34.0,29.94,NW,315,1.0,-999.0,38,-99.99,,,-99.99,,2013-02-08 23:11:00,
2013-02-08 15:21:00,60.0,34.0,29.94,NNW,329,1.0,-999.0,38,-99.99,,,-99.99,,2013-02-08 23:21:00,
2013-02-08 15:31:00,60.0,34.0,29.94,NNW,327,2.0,-999.0,37,-99.99,,,-99.99,,2013-02-08 23:31:00,
2013-02-08 15:41:00,60.0,34.0,29.94,NNW,327,2.0,-999.0,37,-99.99,,,-99.99,,2013-02-08 23:41:00,
2013-02-08 15:52:00,60.0,35.0,29.93,NNW,332,2.0,-999.0,39,-99.99,,,-99.99,,2013-02-08 23:52:00,
2013-02-08 16:01:00,58.0,31.0,29.93,North,349,3.0,-999.0,36,-99.99,,,-99.99,,2013-02-09 00:01:00,
2013-02-08 16:11:00,58.0,31.0,29.93,North,349,3.0,-999.0,36,-99.99,,,-99.99,,2013-02-09 00:11:00,
2013-02-08 16:21:00,58.0,34.0,29.93,NW,317,3.0,-999.0,40,-99.99,,,-99.99,,2013-02-09 00:21:00,
2013-02-08 16:31:00,57.0,35.0,29.93,WNW,298,3.0,-999.0,44,-99.99,,,-99.99,,2013-02-09 00:31:00,
2013-02-08 16:41:00,57.0,35.0,29.93,WNW,298,3.0,-999.0,44,-99.99,,,-99.99,,2013-02-09 00:41:00,
2013-02-08 16:52:00,57.0,36.0,29.93,NW,323,3.0,-999.0,46,-99.99,,,-99.99,,2013-02-09 00:52:00,
2013-02-08 17:01:00,56.0,36.0,29.93,NNW,336,3.0,-999.0,47,-99.99,,,-99.99,,2013-02-09 01:01:00,
2013-02-08 17:11:00,56.0,36.0,29.93,NNW,336,3.0,-999.0,47,-99.99,,,-99.99,,2013-02-09 01:11:00,
2013-02-08 17:21:00,55.0,36.0,29.94,NNE,22,2.0,-999.0,49,-99.99,,,-99.99,,2013-02-09 01:21:00,
2013-02-08 17:31:00,55.0,37.0,29.94,NNW,346,2.0,-999.0,51,-99.99,,,-99.99,,2013-02-09 01:31:00,
2013-02-08 17:41:00,55.0,37.0,29.94,NNW,346,2.0,-999.0,51,-99.99,,,-99.99,,2013-02-09 01:41:00,
2013-02-08 17:52:00,54.0,37.0,29.95,NNW,333,2.0,-999.0,52,-99.99,,,-99.99,,2013-02-09 01:52:00,
2013-02-08 18:01:00,53.0,37.0,29.95,NW,321,2.0,-999.0,54,-99.99,,,-99.99,,2013-02-09 02:01:00,
2013-02-08 18:11:00,53.0,37.0,29.95,NW,321,2.0,-999.0,54,-99.99,,,-99.99,,2013-02-09 02:11:00,
2013-02-08 18:21:00,52.0,37.0,29.95,NW,325,2.0,-999.0,56,-99.99,,,-99.99,,2013-02-09 02:21:00,
2013-02-08 18:31:00,51.0,37.0,29.96,NNE,12,2.0,-999.0,58,-99.99,,,-99.99,,2013-02-09 02:31:00,
2013-02-08 18:41:00,51.0,37.0,29.96,NNE,12,2.0,-999.0,58,-99.99,,,-99.99,,2013-02-09 02:41:00,
2013-02-08 18:52:00,51.0,37.0,29.96,NNE,12,2.0,-999.0,58,-99.99,,,-99.99,,2013-02-09 02:52:00,
2013-02-08 19:01:00,50.0,37.0,29.97,NW,321,2.0,-999.0,60,-99.99,,,-99.99,,2013-02-09 03:01:00,
2013-02-08 19:11:00,50.0,37.0,29.97,NW,321,2.0,-999.0,60,-99.99,,,-99.99,,2013-02-09 03:11:00,
2013-02-08 19:21:00,49.0,37.0,29.97,NW,326,1.0,-999.0,62,-99.99,,,-99.99,,2013-02-09 03:21:00,
2013-02-08 19:32:00,49.0,38.0,29.98,NNW,329,0.0,-999.0,65,-99.99,,,-99.99,,2013-02-09 03:32:00,
2013-02-08 19:41:00,49.0,38.0,29.98,NNW,329,0.0,-999.0,65,-99.99,,,-99.99,,2013-02-09 03:41:00,
2013-02-08 19:52:00,49.0,38.0,29.98,NNW,329,0.0,-999.0,65,-99.99,,,-99.99,,2013-02-09 03:52:00,
2013-02-08 20:02:00,47.0,37.0,29.99,NNW,329,0.0,-999.0,69,-99.99,,,-99.99,,2013-02-09 04:02:00,
2013-02-08 20:11:00,47.0,37.0,29.99,NNW,329,0.0,-999.0,69,-99.99,,,-99.99,,2013-02-09 04:11:00,
2013-02-08 20:22:00,47.0,38.0,29.99,NW,325,0.0,-999.0,70,-99.99,,,-99.99,,2013-02-09 04:22:00,
2013-02-08 20:31:00,47.0,38.0,29.99,NW,323,0.0,-999.0,70,-99.99,,,-99.99,,2013-02-09 04:31:00,
2013-02-08 20:42:00,47.0,38.0,29.99,NW,323,0.0,-999.0,70,-99.99,,,-99.99,,2013-02-09 04:42:00,
2013-02-08 20:52:00,46.0,37.0,29.99,NW,323,0.0,-999.0,71,-99.99,,,-99.99,,2013-02-09 04:52:00,
2013-02-08 21:02:00,45.0,37.0,29.99,NW,323,0.0,-999.0,73,-99.99,,,-99.99,,2013-02-09 05:02:00,
2013-02-08 21:11:00,45.0,37.0,29.99,NW,323,0.0,-999.0,73,-99.99,,,-99.99,,2013-02-09 05:11:00,
2013-02-08 21:22:00,44.0,37.0,29.99,NW,323,0.0,-999.0,75,-99.99,,,-99.99,,2013-02-09 05:22:00,
2013-02-08 21:31:00,43.0,36.0,30.00,NW,323,0.0,-999.0,76,-99.99,,,-99.99,,2013-02-09 05:31:00,
2013-02-08 21:41:00,43.0,36.0,30.00,NW,323,0.0,-999.0,76,-99.99,,,-99.99,,2013-02-09 05:41:00,
2013-02-08 21:52:00,43.0,36.0,30.00,NW,323,0.0,-999.0,76,-99.99,,,-99.99,,2013-02-09 05:52:00,
2013-02-08 22:01:00,43.0,36.0,30.00,NW,323,0.0,-999.0,76,-99.99,,,-99.99,,2013-02-09 06:01:00,
2013-02-08 22:11:00,43.0,36.0,30.00,NW,323,0.0,-999.0,76,-99.99,,,-99.99,,2013-02-09 06:11:00,
2013-02-08 22:21:00,42.0,35.0,30.01,NW,323,0.0,-999.0,77,-99.99,,,-99.99,,2013-02-09 06:21:00,
2013-02-08 22:31:00,41.0,35.0,30.01,NW,323,0.0,-999.0,78,-99.99,,,-99.99,,2013-02-09 06:31:00,
2013-02-08 22:41:00,41.0,35.0,30.01,NW,323,0.0,-999.0,78,-99.99,,,-99.99,,2013-02-09 06:41:00,
2013-02-08 22:52:00,41.0,35.0,30.01,NW,323,0.0,-999.0,79,-99.99,,,-99.99,,2013-02-09 06:52:00,
2013-02-08 23:01:00,41.0,35.0,30.01,NW,323,0.0,-999.0,79,-99.99,,,-99.99,,2013-02-09 07:01:00,
2013-02-08 23:11:00,41.0,35.0,30.01,NW,323,0.0,-999.0,79,-99.99,,,-99.99,,2013-02-09 07:11:00,
2013-02-08 23:21:00,41.0,35.0,30.01,NW,323,0.0,-999.0,78,-99.99,,,-99.99,,2013-02-09 07:21:00,
2013-02-08 23:31:00,41.0,35.0,30.01,NW,323,0.0,-999.0,79,-99.99,,,-99.99,,2013-02-09 07:31:00,
2013-02-08 23:42:00,41.0,35.0,30.01,NW,323,0.0,-999.0,79,-99.99,,,-99.99,,2013-02-09 07:42:00,
2013-02-08 23:52:00,41.0,35.0,30.01,NW,323,0.0,-999.0,79,-99.99,,,-99.99,,2013-02-09 07:52:00,